Regional Weather Roundup
Issued by NWS

Home | Current Version | Previous Version | Graphics & Text | Print | Product List | Glossary On
Versions: 1 2 3 4 5 6 7 8 9 10 11 12 13 14 15 16 17 18 19 20 21 22 23 24 25 26 27 28 29 30 31 32 33 34 35 36 37 38 39 40 41 42 43 44 45 46 47 48 49 50
000
ASUS44 KMEG 261300
RWRTN
TENNESSEE HOURLY STATE WEATHER ROUNDUP
NATIONAL WEATHER SERVICE MEMPHIS TN
800 AM CDT THU APR 26 2018

TNZ002-004-019-021-049-052-054-088>092-261400-
WEST TENNESSEE

CITY           SKY/WX    TMP DP  RH WIND       PRES   REMARKS
MEMPHIS INTL   RAIN      53  53 100 N12       29.83S FOG
NWS MEMPHIS      N/A     52 N/A N/A MISG        N/A
JACKSON        CLOUDY    55  54  96 NE8       29.84S FOG
DYERSBURG      LGT RAIN  55  54  96 N6        29.88S FOG
$$

TNZ008-025-027-028-033-062-065-066-261400-
NORTH MIDDLE TENNESSEE

CITY           SKY/WX    TMP DP  RH WIND       PRES   REMARKS
NASHVILLE      CLOUDY    56  53  90 S3        29.90R
CLARKSVILLE    CLOUDY    56  52  86 CALM      29.89R
SMYRNA         LGT RAIN  56  54  93 S5        29.91R
CROSSVILLE     LGT RAIN  50  48  93 CALM      29.93R
$$

TNZ061-075-076-078-094-096-097-261400-
SOUTH MIDDLE TENNESSEE

CITY           SKY/WX    TMP DP  RH WIND       PRES   REMARKS
$$

TNZ017-018-042-046-047-261400-
NORTHEAST TENNESSEE

CITY           SKY/WX    TMP DP  RH WIND       PRES   REMARKS
TRI CITIES     FAIR      55  49  80 E3        29.92R
$$

TNZ012-013-036-069-073-074-261400-
CENTRAL EAST TENNESSEE

CITY           SKY/WX    TMP DP  RH WIND       PRES   REMARKS
KNOXVILLE      CLOUDY    53  52  96 N7        29.90S
OAK RIDGE      CLOUDY    51  51 100 CALM      29.93S
$$

TNZ083-085-099-261400-
SOUTHEAST TENNESSEE

CITY           SKY/WX    TMP DP  RH WIND       PRES   REMARKS
CHATTANOOGA    LGT RAIN  54  52  93 CALM      29.94R FOG
$$

SKY/WX REPORTED AS FAIR MEANS FEW OR NO CLOUDS BELOW
12 THOUSAND FEET.





USA.gov is the U.S. government's official web portal to all federal, state and local government web resources and services.